Вернуться в каталог

SL-6 R/B(2)

АктивенHEO
NORAD 13882·ROCKET BODY·🇷🇺 Russia

Запущен Mar 11, 1983 с Plesetsk Cosmodrome

Loading…

Ближайшие Пролёты (ближайшие 24 часа)

TLE

СвежийSource: Space-Track

Эпоха: Sep 13, 2026, 19:29 UTC

1 13882U 83015E   26256.81225610 -.00000318  00000-0 -22778-2 0  9997
2 13882  62.0189 209.1525 7155170 270.4203  15.5368  1.96884429312698

Отслеживайте SL-6 R/B(2) в реальном времени с AllMySat

Download on the App Store